COSMOS 249 DEB, 20011

Orbit data source: Space-Track

COSMOS 249 DEB, 20011 is space debris in LEO originally from a launch on Sun, 20 Oct 1968 UTC launched from the Tyuratam Missile And Space Complex (TTMTR). Debris objects in space refer to the collection of defunct objects orbiting the Earth. Examples of debris include non-operational satellites, rocket bodies, and fragments generated from explosions, collisions, or faulty payload assembly.

Loading next visibility...
Identifier
20011, 1968-091DN
Orbit
LEO
Country
Flag of CISCIS
Related business
Manufacturer
Unknown
Mission
Spacecraft
Bus & Motor
Unknown
Mass
Unknown
Launch date (UTC)
1968-10-20 (57 years ago)
Launch vehicle
Unknown
Launch site
Tyuratam Missile And Space Complex (TTMTR)
Object type
Payload
Rocket body
Debris
Shape & HBR
Unknown shape, 0.1 m
Radar Cross Section
Small (<0.1 m²)

Expand to show TLE details & history
Last TLE update: 2 months ago

TLE from 2 months ago
0 COSMOS 249 DEB
1 20011U 68091DN  25220.17843304  .00000636  00000-0  78049-3 0  9995
2 20011  62.2242 143.2209 0630131 232.0882 122.1541 13.09665792600565
Epoch: 2025-08-08T04:16Z
TLE epoch observation values (Epoch: 2025-08-08T04:16:56.614Z)
Latitude
0.00001°
Longitude
122.0528°
Altitude
1,501.612 km
Speed
6.984 km/s
True Right ascension
09h 32m 53s
True Declination
0° 00' 00"
Sunlit
Object was in daylight at epoch
Visualization orbit readout
Latitude
Unknown
Longitude
Unknown
Altitude
Unknown
Speed
Unknown
Apparent Right ascension
Unknown
Apparent Declination
Unknown
Sunlit
N/A
Visualization observer readout
Local Sidereal Time
19:48:54
Azimuth
Unknown
Elevation
Unknown
Doppler factor
Unknown
Orbital elements
Apogee altitude
1,702.44 km
Perigee altitude
744.442 km
Semi-major axis
7,601.578 km
Eccentricity
0.06301
Inclination
62.2242°
RAAN
143.2209°
Arg. of periapsis
232.0882°
True anomaly
128.01086°
Mean anomaly
122.1541°
Eccentric anomaly
125.10766°
Mean motion
3.27482 °/min
Orbital period
109.93 mins
BSTAR
0.00078049
Loading maneuver chart data...
Computing Atmospheric mass density...

Documentation

Showing up to 5 results
|